N5MDT Weather Reports


time (UTC)temp
F
wind
direction
speed
knots
gust
knots
rain 1hr
in
rain 24hr
in
rain mn
in
humidity
%
barometer
mb
20260502122844 53 307 0.0 0.0 0.00 0.00 0.00 89 1020.1
20260502121814 53 307 0.0 0.0 0.00 0.00 0.00 89 1020.0
20260502120845 53 307 0.0 0.0 0.00 0.00 0.00 89 1020.0
20260502115844 53 307 0.0 0.0 0.00 0.00 0.00 89 1019.9
20260502114844 53 307 0.0 0.0 0.00 0.00 0.00 89 1019.7
20260502113844 54 307 0.0 0.0 0.00 0.00 0.00 88 1019.6
20260502112844 54 307 0.0 0.9 0.00 0.00 0.00 88 1019.5
20260502111844 54 307 0.0 1.7 0.00 0.00 0.00 88 1019.4
20260502110844 54 307 0.0 1.7 0.00 0.00 0.00 88 1019.3
20260502105844 54 307 0.0 3.5 0.00 0.00 0.00 88 1019.0
20260502104844 54 316 0.0 4.3 0.00 0.00 0.00 89 1018.9
20260502103844 54 300 4.3 4.3 0.00 0.00 0.00 89 1018.9
20260502102844 54 320 0.0 1.7 0.00 0.00 0.00 89 1019.0
20260502101844 54 320 0.0 2.6 0.00 0.00 0.00 89 1018.8
20260502100844 54 327 0.0 1.7 0.00 0.00 0.00 89 1018.8
20260502090843 54 330 0.9 1.7 0.00 0.00 0.00 88 1017.9
20260502070842 56 67 0.0 0.0 0.00 0.00 0.00 88 1017.5
20260502065842 56 40 0.0 0.0 0.00 0.00 0.00 88 1017.3
20260502064842 56 47 0.0 0.0 0.00 0.00 0.00 88 1017.5
20260502063842 56 24 0.0 0.0 0.00 0.00 0.00 88 1017.5
20260502062842 56 5 0.0 0.0 0.00 0.00 0.00 88 1017.6
20260502061842 56 40 0.0 0.0 0.00 0.00 0.00 88 1017.6
20260502060842 56 47 0.0 0.9 0.00 0.00 0.00 88 1017.7
20260502055841 56 311 0.0 1.7 0.00 0.00 0.00 88 1017.6
20260502054841 56 329 0.9 1.7 0.00 0.00 0.00 88 1017.6
20260502053841 56 34 0.9 3.5 0.00 0.00 0.00 89 1017.3
20260502052841 56 49 1.7 1.7 0.00 0.00 0.00 88 1017.5
20260502051841 56 65 0.9 3.5 0.00 0.00 0.00 88 1017.4
20260502050841 56 56 0.0 2.6 0.00 0.00 0.00 88 1017.5
20260502045841 56 51 1.7 3.5 0.00 0.00 0.00 88 1017.5
20260502044841 56 63 1.7 4.3 0.00 0.00 0.00 89 1017.5
20260502043840 56 345 0.0 1.7 0.00 0.00 0.00 89 1017.4
20260502042826 56 313 3.5 3.5 0.00 0.00 0.00 89 1017.5
20260502041827 56 5 1.7 7.8 0.00 0.00 0.00 89 1017.5
20260502040826 56 5 2.6 4.3 0.00 0.00 0.00 89 1017.5
20260502035827 56 5 0.9 2.6 0.00 0.00 0.00 89 1017.5
20260502034827 57 30 0.0 1.7 0.00 0.00 0.00 90 1017.4
20260502033826 57 36 0.0 1.7 0.00 0.00 0.00 90 1017.5
20260502032827 57 148 0.0 2.6 0.00 0.00 0.00 89 1017.4
20260502031826 57 20 0.9 3.5 0.00 0.00 0.00 89 1017.4
20260502030826 57 304 0.0 3.5 0.00 0.00 0.00 90 1017.2
20260502025826 57 41 0.9 3.5 0.00 0.00 0.00 90 1017.0
20260502024826 57 26 1.7 2.6 0.00 0.00 0.00 90 1016.7
20260502023826 57 355 1.7 2.6 0.00 0.00 0.00 90 1016.3
20260502022826 57 47 0.9 1.7 0.00 0.00 0.00 90 1015.7
20260502021825 57 5 0.0 2.6 0.00 0.00 0.00 90 1015.8
20260502020825 57 36 0.0 0.0 0.00 0.00 0.00 90 1015.8
20260502015825 57 46 0.0 0.0 0.00 0.00 0.00 90 1016.0
20260502014825 57 14 0.0 3.5 0.00 0.00 0.00 90 1015.9
20260502013825 57 30 0.9 2.6 0.00 0.00 0.00 90 1015.6
20260502012825 57 305 0.0 2.6 0.00 0.00 0.00 90 1015.4
20260502011825 57 321 0.0 2.6 0.00 0.00 0.00 90 1015.4
20260502010825 57 107 0.9 3.5 0.00 0.00 0.00 90 1015.3
20260502005825 58 337 0.9 2.6 0.00 0.00 0.00 89 1014.8
20260502004825 58 346 1.7 2.6 0.00 0.00 0.00 89 1014.8
20260502003825 58 46 0.0 2.6 0.00 0.00 0.00 89 1015.2
20260502002825 58 327 2.6 3.5 0.00 0.00 0.00 89 1015.4
20260502001825 58 335 0.0 4.3 0.00 0.00 0.00 89 1014.9
20260502000825 59 319 1.7 2.6 0.00 0.00 0.00 89 1014.6
20260501235824 59 355 0.9 2.6 0.00 0.00 0.00 89 1014.4
20260501234824 59 360 0.9 2.6 0.00 0.00 0.00 89 1014.3
20260501233824 60 17 0.0 2.6 0.00 0.00 0.00 89 1014.3
20260501232824 60 315 0.0 4.3 0.00 0.00 0.00 89 1014.1
20260501231824 60 328 0.9 5.2 0.00 0.00 0.00 90 1012.9
20260501230824 60 30 0.0 1.7 0.00 0.00 0.00 90 1012.2
20260501225824 60 53 0.9 7.8 0.00 0.00 0.00 90 1012.7
20260501224824 60 344 0.9 4.3 0.00 0.00 0.00 90 1013.4
20260501223824 61 355 1.7 4.3 0.00 0.00 0.00 90 1011.6
20260501222824 61 54 2.6 6.1 0.00 0.00 0.00 90 1011.1
20260501221824 61 38 0.9 4.3 0.00 0.00 0.00 90 1011.6
20260501220824 61 42 0.0 5.2 0.00 0.00 0.00 90 1012.2
20260501215823 61 49 0.9 3.5 0.00 0.00 0.00 90 1011.8
20260501214823 61 327 0.0 5.2 0.00 0.00 0.00 89 1013.6
20260501213823 61 76 0.0 3.5 0.00 0.00 0.00 90 1013.2
20260501212823 61 36 0.0 3.5 0.00 0.00 0.00 90 1012.4
20260501211823 61 309 0.0 2.6 0.00 0.00 0.00 90 1013.5
20260501210823 61 13 0.9 3.5 0.00 0.00 0.00 90 1012.4
20260501205823 62 355 0.9 2.6 0.00 0.00 0.00 90 1011.6
20260501204823 62 60 0.9 3.5 0.00 0.00 0.00 90 1011.7
20260501203823 62 342 0.0 2.6 0.00 0.00 0.00 90 1011.7
20260501202823 62 360 0.0 3.5 0.00 0.00 0.00 90 1011.7
20260501201824 62 309 0.0 4.3 0.00 0.00 0.00 90 1012.1
20260501200823 62 329 0.0 1.7 0.00 0.00 0.00 90 1012.3
20260501195822 62 333 0.0 3.5 0.00 0.00 0.00 89 1012.8
20260501194822 62 346 0.9 1.7 0.00 0.00 0.00 89 1012.1
20260501193822 62 342 0.0 1.7 0.00 0.00 0.00 89 1012.5
20260501192822 63 33 1.7 2.6 0.00 0.00 0.00 89 1012.2
20260501191822 63 46 0.0 3.5 0.00 0.00 0.00 90 1012.0
20260501190822 63 47 0.0 2.6 0.00 0.00 0.00 90 1011.2
20260501185822 63 80 0.9 2.6 0.00 0.00 0.00 90 1011.2
20260501184822 63 59 0.0 2.6 0.00 0.00 0.00 90 1010.9
20260501183852 63 46 1.7 5.2 0.00 0.00 0.00 90 1010.6
20260501182822 63 64 2.6 3.5 0.00 0.00 0.00 90 1010.1
20260501181822 63 51 0.9 8.7 0.00 0.00 0.00 90 1009.6
20260501180822 63 101 0.9 3.5 0.00 0.00 0.00 90 1009.4
20260501175822 63 55 1.7 2.6 0.00 0.00 0.00 90 1010.1
20260501174821 63 24 0.9 1.7 0.00 0.00 0.00 91 1011.5
20260501173821 63 346 0.0 0.0 0.00 0.00 0.00 90 1012.4
20260501172821 63 348 0.0 2.6 0.00 0.00 0.00 90 1012.8
20260501171821 63 28 0.9 3.5 0.00 0.00 0.00 90 1012.5
20260501170821 63 9 0.9 2.6 0.00 0.00 0.00 90 1012.7
20260501165821 63 16 0.0 0.0 0.00 0.00 0.00 91 1013.1
20260501164821 63 325 0.0 0.0 0.00 0.00 0.00 91 1013.0
20260501163821 63 40 0.0 0.0 0.00 0.00 0.00 91 1013.4
20260501162821 63 56 0.0 0.0 0.00 0.00 0.00 91 1014.2
20260501161821 63 54 0.0 0.9 0.00 0.00 0.00 90 1015.1
20260501160821 63 58 0.0 0.9 0.00 0.00 0.00 91 1015.2
20260501155821 62 331 0.0 1.7 0.00 0.00 0.00 90 1015.3
20260501154821 62 38 0.9 1.7 0.00 0.00 0.00 91 1015.3
20260501153850 62 221 0.0 3.5 0.00 0.00 0.00 91 1014.7
20260501152821 62 344 0.0 4.3 0.00 0.00 0.00 90 1014.5
20260501151820 62 355 0.9 3.5 0.00 0.00 0.00 90 1014.0
20260501150820 62 11 0.0 4.3 0.00 0.00 0.00 90 1013.5
20260501145821 62 43 0.0 3.5 0.00 0.00 0.00 90 1013.3
20260501144820 62 46 0.0 2.6 0.00 0.00 0.00 91 1013.5
20260501143820 62 42 0.0 3.5 0.00 0.00 0.00 91 1013.4
20260501142820 62 28 0.0 1.7 0.00 0.00 0.00 91 1013.5
20260501141820 62 53 0.0 0.0 0.00 0.00 0.00 90 1014.2